Погода в Сарнии

Канада     42°58′41″N   82°23′55″W
темп.,
°C
ветер,
м/с
пор.,
м/с
влажн.,
%
обл.,
%
осадки,
мм/ч
давл.,
гПа
погр.,
м
13 июня, вс
вс1323:00+18ссв33967 2.2 101167
02:00+17вюв00961 2.8 101111
05:00+17сз22960 0.1 101034
08:00+18с46909 0.1 1012270
11:00+21с448048 0.0 1012640
14:00+23ссв56642 0.1 10121155
17:00+23с46590 0.0 10121096
20:00+19всв23795 0.0 101171
14 июня, пн
пн1423:00+17в017292 0.0 101111
02:00+17ююв2271100 0.0 101122
05:00+15св6118333 0.1 1010291
08:00+15в129237 0.8 1011182
11:00+19с457591 0.1 1011934
14:00+19ссв448090 1.4 1011813
17:00+18ссв4477100 0.9 1011691
20:00+17ссв34867 1.6 1011191
15 июня, вт
вт1523:00+14ссз34913 0.1 101383
02:00+13сз410920 0.1 1012219
05:00+13ссз49940 0.0 1014206
08:00+15ссз59885 0.0 1015329
11:00+17с676318 0.0 1016746
14:00+17с895398 0.0 1017884
17:00+16с795110 0.0 1018743
20:00+13с5106218 0.0 1018425
16 июня, ср
ср1623:00+10ссз46620 0.0 101899
02:00+10ссз46550 0.0 101884
05:00+9ссз47780 0.0 1018109
08:00+12ссз457818 0.0 1019171
11:00+18с45540 0.0 1019885
14:00+18ссв565121 0.0 10191252
17:00+18ссв56550 0.0 1019730
20:00+15св346731 0.0 1018128
17 июня, чт
чт1723:00+12в1158100 0.0 101933
02:00+11юз225924 0.0 101925
05:00+10юз336872 0.0 101943
08:00+14ююз3576100 0.0 1018158
11:00+20зюз455984 0.0 1018732
14:00+23юз464667 0.0 10161513
17:00+24ююз46466 0.0 10141438
20:00+21ю4671100 0.0 1013133